Regional Weather Roundup
Issued by NWS

Home | Current Version | Previous Version | Graphics & Text | Print | Product List | Glossary On
Versions: 1 2 3 4 5 6 7 8 9 10 11 12 13 14 15 16 17 18 19 20 21 22 23 24 25 26 27 28 29 30 31 32 33 34 35 36 37 38 39 40 41 42 43 44 45 46 47 48 49 50
775
ASUS43 KTOP 272308
RWRKS

WEATHER ROUNDUP FOR KANSAS
NATIONAL WEATHER SERVICE GOODLAND KS
600 PM CDT SAT AUG 27 2016

NOTE:  "FAIR" INDICATES FEW OR NO CLOUDS BELOW 12,000 FEET WITH NO
SIGNIFICANT WEATHER AND/OR OBSTRUCTIONS TO VISIBILITY.

KSZ001>006-013>018-027>032-041>047-280000-
NORTHWEST KANSAS

CITY           SKY/WX    TMP DP  RH WIND       PRES   REMARKS
GOODLAND       CLOUDY    78  59  51 S7        30.01S
HAYS           MOSUNNY   88  63  42 S13       29.97S
HILL CITY      MOSUNNY   85  67  54 SE12      29.97F
RUSSELL        SUNNY     86  65  49 S13       29.96F
$$

KSZ061>065-074>080-084>089-280000-
SOUTHWEST KANSAS

CITY           SKY/WX    TMP DP  RH WIND       PRES   REMARKS
DODGE CITY     CLOUDY    89  60  37 SE17      29.98R
ELKHART          N/A     84  60  44 SE18        N/A
GARDEN CITY    CLOUDY    83  60  45 S9        29.97R
GREAT BEND     SUNNY     86  61  42 S10       29.96S
LIBERAL        CLOUDY    81  57  44 S15       30.01R
PRATT          MOSUNNY   85  61  44 SE8       29.97S
$$

KSZ066>073-081>083-090>101-280000-
SOUTHEAST KANSAS

CITY           SKY/WX    TMP DP  RH WIND       PRES   REMARKS
CHANUTE        MOSUNNY   89  71  55 S5        29.97F HX  95
COFFEYVILLE    SUNNY     91  68  46 S5        29.96S HX  95
HUTCHINSON     SUNNY     87  68  52 SE8       29.97S
MEDICINE LODGE   N/A     88  65  46 SE9G17    29.93
NEWTON         MOSUNNY   86  71  60 SE9       29.99
PARSONS        SUNNY     91  67  44 VRB3      29.98S
WICHITA INTL   MOSUNNY   88  69  53 SE10      29.96S
WICHITA JABRA  MOSUNNY   86  70  58 S8        29.97S
WICHITA MCCONL SUNNY     87  69  53 VRB6      29.97S
WINFIELD       SUNNY     87  71  58 S6        29.97F
$$

KSZ007>012-019>026-033>040-048>060-102>105-280000-
NORTHEAST KANSAS

CITY           SKY/WX    TMP DP  RH WIND       PRES   REMARKS
CONCORDIA      SUNNY     84  66  54 E8        29.98F
EMPORIA        CLOUDY    87  71  58 E5        29.98S
LAWRENCE       SUNNY     85  72  65 S6        29.97F
MANHATTAN      CLOUDY    85  71  63 NE7       29.97S
MARYSVILLE     MOSUNNY   82  70  65 S6        29.99S
OLATHE IND     MOSUNNY   84  73  69 S7        29.99F
OLATHE EXE     SUNNY     83  71  67 S7        29.99F
SALINA         PTSUNNY   87  69  54 SE5       29.96F
TOPEKA BILLARD   N/A    N/A N/A N/A MISG      29.97F
TOPEKA FORBES  MOSUNNY   88  71  57 S7        29.98F
$$




USA.gov is the U.S. government's official web portal to all federal, state and local government web resources and services.